GFSNW_sfc_dewp_030.txt.gz
Dewpoint
44 44 44 44 45 48 41 35 29 39 41 34 38 35 37 39 38 38 33 29 29 29 29 27 28 29 28 31 31 28 29 27 20 27 30 30 29 27 24 16 13 19 18 18
44 43 43 44 44 47 41 33 33 40 39 29 33 34 36 37 36 35 31 28 28 31 28 27 27 28 30 32 30 28 30 24 17 24 27 29 28 28 26 24 22 14 16 16
44 43 43 43 43 46 40 34 29 34 36 35 34 34 33 32 36 34 31 30 30 29 27 28 28 28 33 32 31 37 33 26 22 18 20 27 25 28 27 25 16 21 21 22
43 43 43 43 42 45 39 34 34 37 32 31 30 32 33 33 34 36 31 29 29 28 27 29 29 30 31 34 38 34 30 22 24 27 27 28 27 27 28 24 25 21 22 24
44 43 42 42 42 44 39 34 35 37 34 33 29 30 31 33 34 35 30 28 30 30 28 28 29 30 30 29 32 31 31 28 30 22 28 29 27 29 28 28 28 27 27 27
44 43 43 42 42 41 39 40 40 39 33 31 28 29 31 33 36 34 36 33 34 34 36 36 32 31 31 31 31 30 30 29 23 18 26 28 25 28 28 28 29 28 26 27
43 42 44 42 42 39 40 40 40 36 30 30 31 34 34 33 35 33 37 37 35 38 40 38 36 33 32 31 32 32 30 29 29 18 25 17 25 31 30 29 29 30 30 30
42 41 42 41 41 41 35 37 35 36 29 31 31 34 35 35 34 35 36 38 38 40 38 33 31 32 32 31 32 35 33 33 27 20 26 25 28 32 31 31 32 32 31 31
44 42 40 42 41 41 35 37 36 34 33 27 34 33 34 32 30 32 36 39 41 39 37 33 28 26 27 28 34 36 35 34 28 29 25 21 24 36 38 36 29 35 36 35
44 45 42 40 42 40 36 35 36 32 27 30 33 34 34 38 33 31 33 36 36 36 34 31 29 25 29 28 29 30 34 35 31 29 26 27 29 31 38 28 28 35 35 36
42 43 45 41 40 39 38 35 37 32 28 27 28 31 29 31 37 33 34 35 35 34 31 30 29 28 29 28 30 31 30 29 29 29 27 24 34 37 33 33 35 35 35 34
42 43 44 46 41 39 40 36 38 39 34 29 30 29 29 29 29 30 35 36 34 35 31 30 31 30 30 28 26 30 29 30 30 29 28 30 33 35 36 36 35 34 33 34
42 41 42 46 41 40 39 38 38 37 35 31 30 29 30 30 29 29 29 39 41 37 37 34 33 30 32 28 28 27 31 34 33 32 33 34 34 35 35 36 34 35 35 36
44 42 41 43 42 40 41 40 39 39 36 28 24 27 26 30 32 30 29 29 34 39 41 36 34 31 33 30 30 31 33 35 34 33 34 34 36 36 36 35 35 35 35 35
45 41 42 44 42 41 40 38 39 39 35 27 26 29 29 27 28 28 30 29 30 37 41 37 34 35 34 33 33 31 34 32 32 30 33 34 35 36 37 36 35 35 34 33
44 42 44 43 41 40 39 34 35 37 40 32 24 28 27 31 29 26 24 31 36 39 41 38 37 38 35 32 32 34 35 36 36 37 37 38 38 39 37 35 35 34 33 34
42 43 43 40 40 39 35 29 31 40 39 31 21 24 34 33 32 30 32 39 42 41 41 39 38 38 37 35 32 34 35 31 31 35 35 37 37 36 36 35 33 34 32 32
42 42 39 40 41 40 36 37 40 40 36 33 24 26 32 37 35 35 41 38 42 43 40 41 36 38 37 34 34 30 30 31 32 32 33 33 34 34 35 33 31 30 30 29
43 38 41 39 35 31 33 41 41 40 36 28 28 24 28 40 36 41 43 43 37 41 39 39 38 35 34 34 31 29 30 30 31 32 32 33 33 33 35 32 30 30 29 27
37 36 34 32 34 39 41 39 34 33 34 33 27 33 29 41 40 39 39 39 36 34 36 40 37 35 32 30 30 30 30 30 31 29 30 28 30 30 32 33 32 30 29 27
33 30 31 34 38 35 36 31 30 31 29 32 32 33 35 42 37 38 39 35 35 32 35 37 33 32 31 30 30 30 29 29 30 31 31 32 32 33 33 34 34 31 29 27
34 33 37 38 35 32 29 28 32 31 30 36 35 36 39 40 41 36 37 33 34 30 37 34 29 30 28 28 28 29 29 29 30 31 34 35 34 35 35 35 36 34 30 27
37 36 32 30 31 25 25 20 28 31 33 34 34 33 38 40 39 36 35 32 32 34 32 31 27 28 27 28 28 28 28 29 29 30 32 34 34 36 33 32 32 31 28 27
27 27 21 25 24 27 24 26 23 32 34 34 34 34 35 36 35 35 31 33 32 30 27 24 22 26 27 28 28 28 28 28 29 29 31 32 34 35 35 32 29 28 28 28
22 25 18 22 26 25 26 28 31 29 35 34 34 34 36 33 32 33 31 30 28 28 26 23 23 28 27 27 28 28 29 28 28 28 28 28 29 29 33 34 32 26 25 25
21 25 23 25 24 22 24 24 28 34 33 34 33 32 32 32 31 31 29 27 24 25 24 24 28 27 27 27 27 28 29 28 27 27 27 28 27 26 26 33 33 32 30 30
19 20 26 24 23 25 24 28 30 31 32 31 32 30 29 32 30 28 30 29 27 27 28 29 26 25 26 25 26 27 28 27 26 27 27 27 27 26 25 24 25 31 32 32

GFSNW_sfc_dewp_033.txt.gz
Dewpoint
45 45 44 44 44 47 42 34 29 39 40 33 37 34 36 39 37 37 31 29 29 29 29 28 28 28 29 31 31 29 30 28 26 28 30 30 29 27 23 20 17 21 20 16
45 44 44 44 43 46 43 33 32 39 38 32 34 35 35 37 35 35 31 28 29 30 28 27 27 28 31 32 30 29 29 25 20 24 27 30 29 28 25 23 23 21 18 14
45 44 44 43 43 46 39 33 27 34 36 33 31 31 31 32 36 34 31 29 31 28 27 29 28 28 34 32 31 37 32 26 22 17 20 27 26 28 26 26 22 21 21 20
45 44 44 43 43 45 39 34 33 36 31 31 30 31 33 32 33 35 31 29 29 28 27 29 28 30 31 33 37 33 30 25 25 27 26 29 28 28 28 25 25 23 21 23
45 44 44 43 43 43 39 34 34 34 33 32 28 29 30 32 34 34 30 28 30 30 28 27 28 30 30 30 32 31 30 28 29 23 28 29 28 29 28 28 27 26 26 26
44 43 44 42 43 41 38 39 40 38 32 29 27 29 30 32 35 35 36 31 33 33 35 37 34 31 31 31 31 30 31 29 23 19 26 27 25 28 28 29 29 28 26 28
44 43 41 42 42 38 38 36 39 36 29 30 30 32 33 33 34 32 36 36 33 37 37 36 33 32 32 32 31 31 29 29 25 21 24 18 24 30 30 29 29 30 29 29
44 44 42 41 42 41 37 36 34 35 27 29 30 32 33 34 34 34 35 37 38 39 36 33 30 31 31 31 33 33 32 32 27 21 22 23 26 30 30 29 31 30 30 30
43 44 44 42 42 41 36 37 37 32 30 24 31 30 33 31 29 32 35 39 40 37 36 33 28 26 26 29 33 36 35 32 27 27 23 20 24 36 36 35 31 35 32 33
43 43 43 45 41 40 37 36 36 32 28 27 30 29 32 37 35 31 31 35 35 36 34 32 30 26 28 27 27 32 33 34 29 28 26 26 28 35 38 32 30 34 36 36
45 44 43 44 45 40 38 37 37 33 28 27 27 28 32 30 33 35 34 36 35 33 32 32 31 28 29 27 28 29 28 29 28 28 27 23 32 35 34 35 35 36 36 35
46 43 42 42 44 42 40 37 38 38 34 29 30 28 27 27 26 25 28 34 34 35 31 30 29 30 29 27 26 29 29 29 28 28 26 29 34 36 37 36 35 35 35 35
45 44 42 39 42 45 41 38 39 38 35 33 33 32 32 31 29 29 26 34 41 37 35 32 32 30 31 28 28 28 31 34 32 32 32 33 34 35 36 36 35 35 35 36
45 45 43 41 42 44 41 39 39 38 35 29 26 27 26 27 31 31 29 27 32 32 37 34 33 30 32 29 30 30 32 34 33 32 34 34 35 36 36 36 35 35 35 35
44 45 40 42 44 43 41 39 39 39 35 27 27 29 29 28 30 30 29 27 27 30 34 38 34 33 33 31 32 30 34 33 33 32 33 34 35 37 38 37 37 37 35 34
45 42 42 44 41 40 38 33 35 38 40 31 23 28 27 28 29 30 30 31 31 33 36 39 37 36 33 29 30 32 34 35 35 36 37 38 39 38 38 35 35 35 34 34
44 44 44 40 40 40 34 30 31 40 38 30 19 19 31 37 30 29 27 27 34 35 35 38 37 37 36 33 29 33 36 35 32 34 35 35 36 35 34 34 35 35 33 33
43 43 41 41 41 39 35 36 40 40 36 32 23 20 29 34 30 29 34 30 32 36 38 41 37 38 36 32 33 31 30 31 31 32 33 33 33 34 34 35 33 31 31 30
42 39 40 39 35 31 33 40 42 40 35 25 26 20 24 39 35 36 36 36 32 39 36 39 37 37 34 33 33 30 30 30 30 31 31 32 32 32 32 33 32 30 31 30
37 36 34 33 35 38 40 39 35 34 34 33 27 32 28 36 35 36 35 39 35 32 37 39 37 36 32 30 30 30 30 30 30 29 28 27 29 31 31 32 33 33 32 30
34 30 31 34 38 36 35 31 29 29 28 31 31 32 31 41 37 36 39 34 34 31 34 34 33 33 31 29 29 29 28 27 29 30 31 31 32 33 33 33 34 34 33 30
37 35 37 37 35 32 29 27 31 30 29 36 34 35 36 38 41 37 37 33 33 29 38 34 31 31 26 27 27 27 27 27 29 30 31 34 34 34 35 33 34 36 35 31
37 35 32 30 30 25 24 22 27 29 32 33 33 32 36 38 39 35 34 31 31 34 32 30 27 26 26 26 27 27 28 29 29 29 31 33 33 35 36 34 32 31 30 28
25 21 18 24 23 27 28 28 27 29 31 31 33 33 35 36 35 35 32 34 32 29 27 24 25 24 26 27 28 28 28 28 28 28 29 30 30 31 33 35 32 28 29 28
19 23 17 21 27 27 26 30 31 28 32 32 32 33 35 33 32 34 32 30 27 28 24 21 20 27 28 26 27 28 28 28 27 28 28 28 28 27 27 32 34 30 25 26
18 24 19 24 23 23 24 24 25 33 31 32 33 31 32 32 32 31 29 26 24 25 26 22 28 28 26 26 26 27 28 27 27 27 27 27 26 26 26 28 30 33 31 29
16 14 22 21 20 23 25 28 28 31 31 29 31 29 29 32 30 27 27 27 29 23 24 26 29 26 25 25 25 26 26 25 25 26 27 27 26 26 25 24 24 25 30 32

GFSNW_sfc_dewp_036.txt.gz
Dewpoint
46 45 45 45 44 47 45 40 41 43 43 41 41 37 36 39 36 37 30 30 30 30 30 30 30 26 29 31 30 28 29 31 29 29 30 30 29 27 23 23 23 23 22 12
46 45 45 45 44 45 45 40 39 43 44 36 36 36 35 37 34 34 31 28 29 30 29 28 28 30 31 32 30 29 29 29 28 27 29 30 29 28 26 23 26 27 19 13
46 45 45 44 44 44 42 39 38 40 40 38 35 34 33 33 37 34 31 29 31 28 27 28 27 28 33 31 31 36 33 27 28 21 28 30 30 28 27 27 27 22 19 18
46 44 44 44 44 43 41 39 34 35 37 35 34 35 35 33 32 36 31 29 28 26 26 27 27 30 31 32 36 32 30 33 31 26 27 30 29 28 28 29 26 26 20 21
46 44 43 43 43 43 39 37 34 33 34 34 32 32 33 34 34 35 30 28 29 29 28 25 27 29 30 29 33 30 31 32 31 30 28 29 29 28 28 28 27 26 25 25
45 45 43 43 43 40 37 39 39 37 32 33 32 32 33 34 35 35 36 30 32 32 32 34 33 31 31 31 31 30 31 33 31 26 26 27 26 28 28 28 29 27 26 26
45 45 45 43 43 40 40 38 38 34 30 31 32 32 33 33 35 36 37 35 33 36 35 34 32 32 32 32 31 31 31 33 32 29 27 22 26 30 30 28 28 29 28 29
44 44 45 45 43 41 39 39 37 34 26 29 27 31 33 35 35 36 37 38 39 39 37 33 30 30 29 30 32 31 30 30 31 28 24 23 23 28 29 30 32 30 29 29
44 43 43 45 44 40 38 39 39 35 29 22 31 29 30 33 34 35 38 42 42 40 37 34 27 26 25 28 31 35 33 31 29 27 23 20 25 35 33 33 31 35 32 32
44 45 44 43 46 44 39 39 38 35 27 21 31 28 31 36 37 35 35 38 40 39 36 30 26 26 28 27 26 30 31 32 30 27 23 24 28 36 37 32 32 35 36 36
45 45 44 43 44 44 41 39 39 35 31 27 26 25 26 26 21 33 34 38 38 37 35 32 31 27 28 29 28 28 27 27 29 28 26 22 31 35 32 35 36 36 37 36
45 45 44 42 43 43 42 38 39 38 34 31 30 28 26 25 25 23 23 32 34 37 36 36 34 31 30 30 27 32 28 28 26 27 25 28 34 36 37 36 35 36 36 36
45 45 44 43 41 43 43 40 40 39 36 34 34 31 32 33 30 29 25 25 35 36 35 37 36 33 34 30 30 32 33 33 32 31 31 32 33 35 36 36 36 36 36 36
44 45 43 41 40 42 43 41 41 39 35 29 26 28 29 29 32 31 30 27 29 33 34 37 37 33 35 32 31 31 33 34 32 32 34 35 35 36 36 36 37 37 38 36
44 45 43 42 45 42 43 41 40 40 35 27 26 30 30 29 28 30 30 28 28 28 28 32 37 37 35 34 33 32 35 34 32 31 34 33 34 37 39 39 37 35 36 37
44 44 44 44 43 40 40 34 38 40 40 32 25 30 28 27 29 28 29 30 29 30 28 30 36 38 36 35 32 33 34 35 35 34 36 38 39 38 38 35 34 34 35 36
44 44 43 43 41 42 36 30 34 40 39 32 25 25 28 35 30 30 30 31 33 31 29 29 34 39 37 35 30 32 34 35 36 36 35 34 36 36 34 34 34 36 35 34
44 43 40 40 41 40 37 37 40 40 37 34 24 25 28 32 29 28 29 28 28 31 34 33 34 39 38 34 34 35 35 34 32 33 33 32 32 33 33 34 35 34 33 33
43 38 39 41 38 34 36 40 42 41 36 28 28 25 26 36 35 34 31 30 25 32 34 36 39 37 36 35 34 34 32 32 32 32 31 31 32 33 34 33 33 33 33 32
36 36 34 33 35 37 39 39 35 34 34 33 28 33 28 35 36 34 34 33 30 31 35 39 36 36 34 31 32 32 31 30 30 30 32 33 34 35 34 34 34 34 34 34
36 33 31 35 38 37 35 32 30 31 28 31 30 31 30 38 33 35 36 33 34 32 34 36 34 32 32 30 29 29 29 29 30 30 31 31 32 33 34 35 35 34 35 35
38 38 38 38 34 33 30 28 31 30 29 35 34 35 36 36 41 37 37 34 35 31 38 34 31 32 29 28 28 28 28 29 30 30 31 33 33 34 35 36 34 32 32 35
38 34 32 30 30 27 26 24 28 29 32 33 32 31 36 37 39 36 35 32 32 35 33 31 32 29 28 28 28 28 28 29 29 29 30 30 32 34 34 35 34 32 32 29
29 24 18 25 25 28 28 29 29 31 32 31 31 31 34 36 34 35 32 34 34 31 29 28 31 29 28 28 29 28 28 28 28 29 29 30 30 29 29 33 35 30 26 29
25 24 17 23 27 29 30 30 32 33 33 32 30 31 34 33 32 35 33 31 29 29 27 31 31 29 29 28 28 28 28 28 28 28 28 28 28 27 26 29 32 33 29 27
26 25 22 24 25 27 27 28 29 33 31 32 32 31 32 33 33 32 31 28 26 31 32 31 29 29 27 26 26 27 27 25 24 27 27 27 26 26 26 25 25 25 31 32
22 22 24 25 25 25 26 26 28 30 31 29 30 29 29 32 31 29 31 30 34 33 31 30 30 29 27 25 25 26 24 22 23 26 27 26 26 26 26 25 25 24 25 30

GFSNW_sfc_dewp_042.txt.gz
Dewpoint
46 47 46 46 46 45 43 44 40 46 47 43 42 38 36 37 33 35 30 31 30 27 28 28 27 27 30 31 31 29 31 31 30 31 31 34 35 33 32 28 24 23 22 19
46 46 46 46 46 44 41 38 38 46 47 38 33 35 33 35 33 33 31 29 30 31 28 27 28 30 32 34 32 30 30 30 25 27 30 31 30 29 34 32 30 28 24 18
46 46 46 46 46 44 43 39 37 42 44 38 36 33 31 32 39 34 31 30 30 29 28 28 28 30 34 32 33 37 33 29 27 23 26 31 29 29 29 28 27 25 23 20
46 45 46 46 45 44 42 38 35 35 36 35 35 35 35 31 32 36 34 31 29 27 26 25 27 30 32 33 36 33 32 29 27 27 28 31 31 29 29 28 29 25 24 22
45 45 45 46 44 45 37 34 33 34 33 34 34 34 34 33 34 34 31 30 30 28 27 26 25 28 28 28 32 31 33 30 31 26 28 28 27 28 28 29 29 28 27 24
45 45 45 45 44 42 31 31 34 35 32 31 32 33 33 34 36 36 35 33 30 29 34 35 33 30 29 30 30 30 31 31 27 23 27 27 24 27 27 28 28 28 26 26
45 45 45 44 45 43 37 35 35 31 24 24 27 30 32 33 34 35 36 32 34 34 35 34 32 30 30 30 29 30 30 31 30 23 25 17 27 30 29 27 27 28 27 28
46 45 45 45 45 44 39 37 35 28 21 18 24 24 24 28 34 35 37 39 40 36 36 31 30 30 29 29 30 29 29 30 28 25 23 24 25 30 29 28 28 28 28 28
45 45 45 44 45 43 41 39 40 34 25 21 17 17 24 30 32 35 37 41 42 40 38 33 27 26 26 28 30 32 29 30 28 28 21 19 31 30 30 31 31 34 30 30
45 45 45 44 44 44 43 41 40 35 30 27 24 22 24 26 30 31 36 34 38 40 36 33 28 26 27 25 24 29 30 29 27 28 25 23 30 32 35 31 32 35 33 34
45 46 46 45 44 44 42 41 41 37 30 29 28 26 24 24 23 22 26 32 37 38 33 33 33 26 26 25 25 27 27 27 27 27 26 21 36 37 34 35 38 37 37 37
45 45 44 44 43 42 44 40 41 40 37 31 34 32 31 29 29 26 26 27 26 36 35 35 34 29 24 25 23 27 26 27 26 26 27 30 32 35 36 36 36 38 37 37
44 44 44 43 42 43 43 43 42 40 37 32 30 29 31 33 33 32 26 27 31 35 35 33 36 34 33 26 26 27 28 30 28 27 28 30 31 36 36 37 37 37 38 37
45 44 44 44 44 44 44 42 42 41 36 28 26 29 29 31 33 33 32 30 32 33 34 31 32 35 36 30 29 28 31 31 29 29 31 35 34 33 37 37 37 38 38 38
44 44 44 44 44 43 42 41 42 42 36 29 28 32 30 29 29 30 31 30 29 29 29 29 28 35 35 36 34 31 33 32 30 28 31 31 32 34 37 37 38 36 35 36
44 44 45 44 43 40 41 36 40 41 40 32 26 32 29 28 33 29 29 30 30 30 28 27 28 31 32 30 32 32 31 33 33 32 37 37 38 39 38 37 36 35 35 35
44 44 44 41 42 42 37 34 37 40 39 32 27 27 30 32 32 31 30 30 32 31 30 27 25 25 34 33 27 31 30 33 36 37 38 37 36 37 35 34 34 35 34 35
44 42 39 41 42 41 38 39 40 40 37 34 26 26 30 32 31 28 31 28 30 31 28 27 24 25 26 25 31 38 36 36 36 35 34 33 33 32 33 34 35 34 34 34
41 36 40 41 38 35 37 41 41 41 36 30 29 26 27 36 34 34 29 29 24 28 27 25 27 26 25 26 23 33 38 35 35 34 33 32 32 34 35 35 35 34 35 35
39 35 33 33 36 37 38 38 35 34 34 34 28 34 28 35 34 34 30 30 29 23 26 30 27 30 26 35 38 37 33 33 34 32 32 30 30 33 33 34 35 35 36 35
37 34 33 36 39 37 36 32 31 33 29 32 31 32 30 35 31 32 34 32 30 26 31 29 32 31 33 32 32 31 30 30 31 32 33 33 33 33 33 34 36 36 35 34
38 37 37 38 35 33 29 30 33 32 30 34 33 31 31 34 37 33 35 31 32 29 35 32 31 33 33 30 29 31 29 30 31 32 33 33 33 34 34 34 35 35 34 33
38 33 29 32 29 20 20 21 25 27 33 33 32 30 31 33 37 34 33 31 32 36 32 30 31 31 30 29 29 29 29 30 31 31 31 32 32 32 30 30 33 35 34 33
30 23 13 23 21 24 25 26 28 32 32 32 31 30 30 33 33 34 31 35 34 30 28 30 30 30 28 29 29 29 29 30 30 30 30 30 30 29 29 29 29 29 33 32
25 24 15 19 28 27 27 27 28 31 33 32 30 30 31 30 31 34 32 31 28 30 30 32 31 29 29 29 29 28 28 28 28 29 28 28 27 27 27 27 27 26 26 30
25 23 21 26 22 24 25 25 24 31 32 31 33 29 29 29 31 30 30 30 28 31 32 34 32 31 29 28 28 26 24 22 25 27 27 26 26 26 26 26 27 27 26 26
19 21 28 26 24 23 25 25 25 30 27 26 27 24 25 28 28 29 32 30 32 33 33 31 30 29 27 24 26 26 21 20 25 27 28 29 25 21 17 16 19 24 27 26

GFSNW_sfc_dewp_045.txt.gz
Dewpoint
47 46 46 47 47 47 42 38 35 44 47 38 39 30 36 37 34 35 33 31 30 28 28 27 27 29 31 32 32 31 32 32 31 32 37 38 36 34 31 25 23 22 21 18
46 46 46 47 46 45 41 34 36 44 43 37 32 33 35 36 35 33 32 29 31 30 28 26 28 30 32 33 32 29 31 29 27 30 30 34 36 34 35 32 28 24 20 17
46 46 46 46 46 46 42 36 32 36 40 38 35 33 31 33 37 36 32 30 30 28 28 27 28 30 33 32 33 39 34 30 24 21 23 30 28 32 34 33 25 26 24 19
46 46 46 46 47 47 40 35 33 34 33 33 33 34 35 32 34 36 34 31 30 28 25 25 27 31 32 33 37 32 32 24 23 27 30 31 30 29 30 31 28 27 25 19
46 46 45 45 46 44 32 31 30 32 32 33 33 34 35 35 35 34 33 30 30 29 29 28 26 30 29 29 32 30 32 25 27 22 27 29 27 29 29 30 28 27 28 27
46 46 46 46 45 42 31 32 33 34 32 28 30 32 32 34 36 36 36 34 32 29 35 35 33 30 29 30 30 30 31 26 21 19 27 27 22 27 27 28 30 29 27 27
46 46 45 45 46 44 35 34 34 27 24 18 23 23 24 26 31 34 36 37 35 34 35 34 31 30 30 30 31 31 32 29 26 21 24 16 22 29 29 27 28 29 29 29
46 45 45 45 45 45 38 37 34 29 23 22 18 16 18 27 33 35 36 40 41 41 36 31 29 29 29 29 29 29 32 31 25 21 23 22 26 30 29 27 27 29 28 28
45 46 45 45 44 45 39 38 37 32 26 23 20 20 24 25 29 34 37 38 37 39 37 34 28 26 26 26 29 31 30 30 26 28 21 20 29 29 30 32 29 33 29 29
45 45 46 45 44 44 41 41 39 35 28 28 26 24 24 26 24 26 34 29 34 39 34 31 28 25 27 26 26 27 29 29 26 27 25 24 26 32 33 30 29 35 32 30
45 45 44 44 43 43 41 40 40 37 31 31 29 30 26 25 23 21 25 31 34 36 33 31 30 27 26 25 26 28 27 25 25 27 25 20 34 36 32 35 37 37 37 37
44 44 44 44 42 43 42 40 42 41 36 31 34 33 33 31 30 27 26 27 27 35 34 35 35 30 26 25 23 28 25 27 27 26 25 28 36 35 36 37 37 37 36 37
44 45 44 44 44 44 43 42 42 40 36 30 29 28 31 33 33 33 26 30 34 34 34 33 34 34 34 26 26 26 28 29 27 27 28 29 31 36 36 38 38 38 38 37
44 44 44 44 44 43 42 40 40 39 35 27 25 29 30 31 34 33 34 32 33 34 34 30 29 31 36 33 32 28 30 30 29 28 30 33 33 34 36 37 37 37 37 37
44 44 44 45 44 42 41 39 39 41 35 28 29 32 30 30 33 33 33 32 31 30 28 27 26 31 32 32 34 30 32 30 29 28 30 30 31 34 37 37 38 38 36 36
44 44 44 43 41 39 39 33 37 39 39 30 25 31 28 29 33 29 30 31 30 30 28 27 28 30 28 25 26 31 31 34 34 31 35 35 38 37 38 38 36 35 35 35
44 44 42 41 42 39 34 32 36 40 38 31 23 26 30 33 32 31 30 30 31 30 28 27 24 24 30 29 22 24 27 35 37 38 37 36 37 36 34 34 34 35 34 35
43 41 38 41 42 40 36 38 40 40 36 31 20 22 28 33 31 28 31 28 29 29 27 27 25 25 24 21 20 21 25 38 36 34 34 36 34 33 34 35 35 35 34 34
41 37 41 39 35 32 35 41 41 41 36 29 27 24 22 36 33 35 30 29 25 28 26 25 26 24 22 22 23 22 21 36 37 36 33 33 33 34 35 34 34 33 34 35
39 35 32 30 33 38 38 39 36 33 33 33 26 32 28 34 33 34 30 30 25 18 24 28 25 23 25 26 30 34 33 35 36 33 31 31 30 33 32 32 34 34 35 34
35 31 29 34 39 36 34 29 27 31 25 31 30 32 29 33 29 30 34 28 29 17 26 26 28 32 33 33 34 34 37 36 33 33 33 33 34 33 33 34 35 35 35 33
35 33 36 35 34 31 20 17 28 27 26 32 31 31 31 32 36 33 33 31 32 23 32 30 30 33 34 33 31 32 32 34 33 33 34 34 34 34 34 34 34 35 35 33
35 30 22 24 21 14 10 10 15 17 26 26 27 27 31 32 35 34 32 30 30 35 31 31 32 32 30 33 33 33 35 35 35 33 32 32 31 30 30 30 31 31 33 31
24 12 6 13 12 14 17 18 16 25 24 26 29 26 28 31 31 34 30 34 34 28 28 29 31 31 29 29 33 30 32 34 34 33 31 30 30 29 29 28 27 26 26 31
19 16 7 12 21 17 18 27 21 23 26 25 25 29 31 28 29 32 31 30 27 29 27 32 33 32 32 29 29 29 28 29 31 30 31 28 27 26 26 27 27 26 25 26
18 14 12 21 14 13 17 13 17 24 27 24 28 25 28 26 29 27 28 29 24 29 32 33 33 32 32 32 28 25 22 24 27 27 27 26 25 23 22 22 21 25 27 25
12 13 24 20 14 17 18 25 24 29 23 16 23 21 18 24 24 25 30 26 30 34 34 33 33 30 29 25 26 25 21 22 27 29 29 28 28 23 16 15 18 22 26 26

GFSNW_sfc_dewp_048.txt.gz
Dewpoint
46 46 46 47 47 47 42 36 37 43 46 39 39 28 35 37 34 34 33 30 30 28 27 26 28 30 32 38 36 32 32 31 29 32 37 38 37 34 31 28 22 22 21 18
46 46 46 47 47 46 39 34 34 44 44 36 31 33 35 36 34 33 32 29 30 29 28 26 29 30 32 34 32 32 31 29 26 27 30 35 36 37 34 31 28 21 19 18
46 46 46 46 46 45 40 35 29 35 41 39 34 34 31 33 36 35 31 30 29 28 27 27 29 30 33 32 32 38 34 28 24 22 23 30 31 35 34 33 25 26 24 22
46 46 46 46 46 44 38 33 32 32 33 32 32 34 35 32 34 35 33 30 29 28 25 25 29 31 31 32 36 32 30 24 24 26 29 29 29 30 33 33 31 28 27 24
46 46 46 46 46 40 31 29 28 31 30 32 31 34 33 35 35 34 33 30 32 29 31 28 26 30 30 29 32 31 31 23 25 20 26 29 27 28 32 33 33 31 27 27
46 46 46 45 45 39 32 33 33 33 30 21 29 26 26 30 34 37 36 35 32 32 34 35 34 30 30 30 30 30 30 25 20 17 26 25 21 26 27 30 31 32 27 28
46 46 45 45 45 41 35 34 32 24 21 21 22 17 21 25 28 32 34 38 34 37 39 34 31 30 30 31 31 32 30 26 22 19 22 14 22 28 28 26 28 30 29 29
45 46 46 45 45 45 37 36 33 28 22 23 20 21 22 27 31 33 36 39 39 41 36 30 28 28 28 29 30 30 31 30 24 20 19 22 24 29 28 26 26 27 29 30
45 46 46 45 45 45 38 36 36 31 26 25 25 23 25 24 25 30 36 38 31 39 37 33 25 23 25 26 28 30 30 30 25 27 21 19 24 31 31 31 28 33 29 30
45 45 44 44 44 44 40 38 37 32 27 28 28 24 24 25 23 22 29 25 32 38 33 30 28 22 27 25 26 27 29 29 28 25 24 24 26 28 33 26 26 35 31 30
45 44 44 43 43 43 40 38 40 35 30 30 30 31 28 28 24 22 25 29 33 36 32 32 28 27 25 24 26 27 27 26 26 27 25 19 29 34 30 32 36 37 36 33
44 44 45 45 44 44 42 38 42 41 33 31 35 34 33 32 30 28 27 27 30 35 34 34 35 31 28 25 22 27 26 27 26 26 26 26 29 33 36 37 37 37 37 38
45 44 43 44 44 44 42 41 38 39 33 28 27 25 29 32 33 33 26 31 33 32 34 32 33 33 35 28 25 26 28 29 27 27 27 28 30 34 37 37 38 38 37 37
44 44 44 45 45 43 41 37 38 40 35 23 26 29 30 32 34 34 34 33 34 34 33 29 28 29 35 32 32 31 29 30 28 28 29 31 31 32 36 37 38 38 37 37
44 44 45 44 43 42 39 37 37 39 30 25 28 31 30 30 32 33 34 33 32 32 29 28 26 29 30 30 31 29 32 31 29 28 30 29 29 32 36 37 37 37 38 37
44 44 44 42 42 41 37 31 35 38 36 27 22 31 29 28 33 30 31 32 31 30 28 27 28 28 28 21 23 27 26 33 36 34 35 35 35 37 37 37 37 36 35 35
43 43 40 42 42 36 32 30 33 39 36 27 20 24 30 32 31 31 30 30 30 30 28 27 25 24 28 26 22 21 21 21 30 36 37 37 37 36 36 35 35 36 34 34
42 39 41 42 41 38 34 37 41 39 33 28 18 22 27 33 31 29 31 28 29 29 28 27 26 25 24 20 20 20 21 21 21 30 37 36 35 34 34 35 35 34 34 34
40 41 42 37 34 30 33 41 41 40 34 22 21 21 21 36 32 34 31 29 25 28 26 26 26 23 21 21 20 22 22 23 32 35 36 36 35 35 35 34 34 33 33 34
40 35 31 28 32 38 38 39 34 32 32 28 18 26 22 33 32 31 29 29 24 14 24 27 24 22 24 27 33 27 32 35 34 33 34 34 33 34 33 33 34 34 34 34
34 30 27 32 38 36 33 29 25 29 22 29 24 27 28 31 29 29 33 25 27 17 21 23 22 28 35 34 33 32 36 37 36 37 35 34 34 34 34 35 35 35 35 34
33 33 35 33 31 29 15 18 25 23 20 29 30 28 29 31 34 33 32 30 31 22 30 26 27 33 33 33 34 34 34 35 35 34 34 34 34 35 35 34 34 34 34 32
33 28 20 23 18 8 3 3 11 13 21 22 24 23 27 31 33 33 32 29 28 33 29 30 30 33 33 32 33 33 34 36 35 35 35 33 30 30 30 30 27 30 31 31
23 12 5 13 8 10 15 14 13 22 22 23 27 27 24 28 27 32 29 30 34 28 23 23 31 33 32 33 34 34 33 34 34 33 33 33 29 28 28 27 26 25 25 28
19 16 6 10 19 13 14 26 21 21 24 24 24 28 29 26 25 29 30 30 25 26 24 28 32 33 32 32 33 32 32 32 33 33 32 31 29 26 27 27 27 26 25 24
17 15 12 19 13 10 21 19 19 22 25 23 26 25 25 24 27 24 24 24 21 24 31 34 34 33 33 32 33 31 22 26 29 31 31 30 27 24 19 19 19 25 26 25
13 15 23 18 15 17 18 24 24 27 23 15 15 10 13 23 22 21 24 22 25 28 33 32 31 31 32 32 30 27 22 26 29 31 31 30 29 28 16 13 18 22 25 25

GFSNW_sfc_dewp_054.txt.gz
Dewpoint
46 47 47 47 47 45 40 35 36 45 46 38 39 33 33 37 33 34 32 29 29 28 35 35 34 31 34 37 37 31 32 30 29 31 36 38 37 33 30 23 21 20 19 21
46 46 47 47 46 44 38 33 37 45 45 34 32 33 33 35 33 32 31 29 30 29 27 28 30 30 34 38 34 32 32 27 27 28 31 35 35 36 34 31 27 20 22 23
46 46 46 46 45 44 38 33 29 35 42 39 33 30 32 31 35 33 31 30 29 27 26 29 29 30 33 34 34 41 35 29 23 21 22 30 32 33 34 33 30 27 26 26
46 46 46 46 44 40 33 30 28 29 26 31 31 33 33 33 34 35 32 30 32 28 25 27 28 31 30 32 39 36 33 27 25 26 26 30 31 31 34 34 32 29 27 27
45 46 46 46 43 37 31 25 24 29 26 25 29 27 32 29 30 35 33 32 34 30 30 29 27 30 29 29 31 31 30 25 25 24 26 29 28 29 31 32 33 34 33 33
46 46 46 46 43 36 31 30 31 29 23 21 26 18 23 27 31 35 34 35 33 32 35 36 34 33 30 30 29 29 29 26 19 16 25 24 22 25 28 30 33 31 29 30
45 46 45 45 43 38 33 32 29 21 20 20 18 23 24 25 29 32 35 36 35 36 35 38 33 31 30 30 30 31 27 24 21 15 20 9 17 24 26 27 27 32 33 33
45 45 44 45 44 42 35 33 30 25 23 23 23 24 23 23 25 29 36 37 30 29 35 30 27 27 28 29 30 29 28 27 22 17 16 19 18 28 27 26 25 28 28 30
45 44 44 44 44 43 37 35 33 29 25 24 26 24 23 22 20 24 32 33 27 38 35 32 24 22 24 24 26 31 30 28 23 24 16 15 18 30 30 29 25 31 32 31
45 44 43 44 44 43 38 36 34 30 26 27 26 24 24 25 23 20 28 24 29 37 33 32 28 22 25 23 23 25 28 30 23 25 25 25 26 27 30 23 21 33 35 35
45 44 44 45 44 43 38 36 39 32 28 28 31 30 25 26 24 20 23 30 31 35 31 31 29 27 24 22 23 24 26 24 24 25 25 19 27 31 28 28 34 36 36 36
45 45 45 44 44 44 39 37 39 37 30 29 33 33 32 31 30 26 25 28 33 32 33 31 32 29 30 23 21 25 25 25 24 26 25 27 28 33 33 36 36 36 36 37
45 45 44 45 44 43 41 36 36 35 28 26 26 26 28 31 32 32 24 29 32 31 33 31 31 30 35 28 28 25 25 28 27 26 27 28 29 30 31 34 35 37 37 38
45 44 45 44 43 42 40 35 36 35 30 23 25 30 29 32 34 34 33 32 33 32 30 26 26 25 30 29 30 30 32 32 29 28 28 32 30 32 32 29 35 36 37 37
44 45 44 43 43 42 38 36 35 35 29 25 25 28 29 29 32 32 33 33 31 28 25 22 25 28 28 28 27 27 28 26 26 26 33 30 29 26 22 35 36 36 37 36
45 44 43 43 41 39 34 30 34 37 34 23 20 28 27 29 31 30 32 33 31 30 27 26 27 28 29 24 21 22 23 24 27 21 22 23 23 25 27 35 34 37 37 37
44 42 43 42 41 35 31 29 34 38 33 25 18 20 27 31 30 30 29 30 29 28 27 27 25 24 26 26 21 20 22 23 26 30 23 23 23 25 33 35 35 37 34 34
43 43 43 41 41 37 33 37 39 36 30 24 12 15 23 32 29 28 30 28 29 29 28 27 26 25 24 20 21 23 30 32 31 29 27 29 32 33 33 36 35 34 34 33
43 42 42 35 32 29 32 40 39 36 30 18 16 20 15 29 28 34 31 29 24 28 25 25 26 23 21 26 28 32 33 33 32 35 36 35 34 35 35 35 36 36 34 34
44 34 29 27 31 37 38 36 29 28 27 25 16 27 21 25 25 26 29 28 25 19 24 27 23 23 25 27 34 33 32 34 34 32 32 34 32 33 34 35 36 36 35 34
33 29 28 31 38 32 29 22 20 22 17 27 27 27 22 28 21 24 30 29 25 16 24 25 24 25 29 33 33 32 32 33 33 36 35 34 34 32 34 35 35 35 35 33
33 32 33 30 26 19 12 10 18 18 14 24 23 26 27 27 32 30 32 25 28 23 28 26 24 27 30 33 32 31 31 31 32 34 35 34 34 33 33 33 32 33 34 32
30 27 20 21 16 4 -6 -8 6 8 18 23 23 16 24 27 30 27 30 27 26 30 26 23 25 30 31 31 32 32 32 32 32 32 33 34 34 32 30 28 26 26 26 28
22 14 7 10 8 7 12 10 13 19 27 22 23 18 25 27 24 26 20 28 31 20 14 16 19 26 30 32 32 31 30 32 30 31 31 31 31 30 29 26 27 27 26 25
18 16 3 9 17 20 18 20 23 21 25 24 21 19 24 21 24 26 24 20 16 16 13 16 20 23 28 30 30 29 29 31 30 30 31 29 29 29 27 26 25 28 27 26
18 15 15 19 15 11 24 24 19 21 24 24 21 14 12 15 20 21 19 21 12 14 16 21 24 24 25 26 27 27 28 30 29 28 31 31 30 29 28 27 22 24 24 25
16 16 23 18 13 16 18 24 23 25 21 14 14 5 7 21 20 18 23 21 16 15 29 27 23 23 24 25 24 24 26 29 28 27 30 31 31 30 28 27 26 25 24 24

GFSNW_sfc_dewp_060.txt.gz
Dewpoint
47 46 46 46 45 45 43 43 38 45 46 40 40 36 34 37 34 34 31 35 33 34 34 32 31 33 37 40 36 33 32 33 33 35 36 37 33 30 29 26 27 26 23 19
47 46 46 46 44 45 40 40 39 46 45 35 34 34 34 35 34 32 30 31 30 29 31 31 34 32 36 39 34 32 31 31 30 31 31 34 34 33 31 29 30 29 24 19
47 46 45 44 42 45 40 38 35 38 43 39 34 34 34 33 36 33 31 31 29 28 29 30 31 33 34 37 37 38 35 29 29 24 29 30 30 31 33 32 31 26 25 24
46 46 45 43 41 46 37 33 33 34 34 32 33 35 33 34 33 35 34 31 31 28 27 29 30 33 34 35 37 36 33 33 31 26 30 32 31 30 30 33 30 28 26 26
46 46 45 42 42 42 31 27 30 29 26 26 32 33 32 32 32 34 32 32 33 31 30 31 29 31 32 35 34 36 33 32 29 28 27 28 28 29 30 31 30 29 29 28
47 46 45 42 42 37 32 34 34 28 24 27 30 26 29 34 34 36 37 36 33 34 35 35 36 35 31 31 34 33 32 32 32 27 25 24 23 24 26 28 31 30 28 29
47 45 44 42 41 37 34 34 32 24 22 25 24 23 26 35 34 32 36 34 34 33 32 35 36 31 31 31 31 30 29 30 30 28 24 19 20 23 26 26 26 28 30 30
46 45 44 43 42 39 36 35 28 25 22 23 22 22 23 24 32 33 33 34 30 32 36 31 29 29 29 29 31 29 28 28 28 26 22 21 25 28 27 26 28 29 30 33
46 45 45 42 42 41 37 36 34 30 23 24 26 22 22 21 24 32 32 31 30 38 35 31 25 24 25 27 28 30 28 28 27 25 21 16 22 29 30 29 25 32 33 33
45 45 44 44 43 41 39 38 35 32 27 29 26 25 23 25 23 24 26 25 33 39 35 31 27 26 25 25 23 27 28 29 27 25 23 21 25 28 30 25 27 31 33 34
46 46 45 43 43 42 39 39 38 32 29 30 30 29 26 26 24 24 23 30 32 36 33 32 31 28 26 26 25 26 25 25 25 25 24 21 29 31 27 30 27 27 26 30
45 46 45 44 43 42 39 36 38 35 33 30 33 33 33 32 30 27 27 31 32 32 34 34 32 28 30 27 23 26 27 27 25 27 25 29 29 30 31 24 23 23 23 26
46 45 45 44 43 42 39 39 38 37 32 28 28 27 30 32 32 32 24 30 32 30 33 33 33 29 32 26 27 29 29 32 30 29 29 26 24 31 25 27 27 27 25 29
46 45 45 43 43 41 40 39 38 36 33 28 26 30 29 31 35 34 32 32 33 32 34 30 30 29 29 28 28 29 28 28 24 24 25 24 29 26 26 29 29 26 27 31
45 46 45 43 42 41 39 38 38 37 35 28 27 29 29 31 32 34 34 32 31 29 29 31 28 30 29 27 25 24 25 23 23 22 25 26 26 29 31 30 29 30 32 33
46 46 44 42 41 37 36 33 37 38 35 34 28 28 30 31 31 32 32 32 30 30 27 27 27 27 29 23 18 21 23 23 28 28 29 30 32 32 31 30 32 33 33 34
46 44 42 41 41 40 33 31 35 37 34 32 27 28 28 32 30 31 30 31 31 30 29 27 25 25 28 25 19 19 25 28 32 32 31 31 31 31 33 35 34 34 34 33
45 43 42 41 40 37 35 38 37 34 31 30 26 23 29 31 30 29 31 29 30 30 29 28 25 25 25 20 20 22 28 30 31 31 32 32 33 33 33 32 32 33 34 35
43 42 41 37 34 33 35 37 36 36 33 27 25 23 22 29 29 33 31 29 25 29 26 25 26 23 24 24 22 24 27 29 30 31 32 32 32 33 32 31 32 34 35 35
42 36 31 32 34 39 39 34 32 33 32 30 26 27 23 28 28 29 28 28 26 25 25 27 25 25 26 26 27 28 29 29 29 29 29 30 30 32 31 30 31 33 33 34
35 31 31 35 38 33 29 27 27 23 23 28 27 26 24 29 27 26 30 27 26 24 25 25 25 25 27 28 30 30 29 30 29 28 29 30 30 31 30 30 30 30 30 32
35 35 35 32 26 23 20 16 21 19 20 28 26 27 27 29 31 28 31 25 26 22 27 24 23 27 30 31 30 30 29 29 29 29 28 29 29 30 30 30 30 28 30 31
34 30 26 25 20 12 15 9 17 22 25 27 27 25 27 28 30 27 27 24 24 28 26 23 25 28 30 29 31 29 29 27 26 27 27 28 30 30 30 29 29 22 24 26
30 26 15 21 17 16 17 20 24 24 27 26 25 26 26 26 25 25 22 25 29 24 21 23 27 27 27 25 24 24 25 25 25 27 28 29 31 30 30 30 29 26 24 25
25 25 15 18 21 22 22 23 27 27 28 26 25 26 25 25 24 23 23 21 20 21 22 25 27 27 28 26 23 22 23 24 25 26 27 28 30 30 29 31 32 29 23 24
26 23 21 22 24 22 25 23 25 28 27 25 25 23 21 22 23 21 20 18 17 22 25 28 27 28 28 27 25 23 21 20 22 26 27 28 30 30 31 31 31 30 25 25
24 23 25 24 26 25 24 22 23 26 25 23 22 16 13 22 20 19 22 21 25 28 28 27 28 29 26 26 25 23 20 20 21 24 24 26 29 31 31 30 30 30 29 28

GFSNW_sfc_dewp_066.txt.gz
Dewpoint
53 52 50 49 48 48 47 44 38 46 47 39 39 37 34 38 33 35 33 34 33 34 34 31 33 33 36 37 35 32 33 35 33 34 36 35 36 28 28 27 25 25 24 20
53 51 50 49 48 48 45 39 39 45 46 34 34 35 35 35 32 32 30 32 32 31 31 30 34 35 38 37 36 33 33 33 29 31 32 33 34 32 31 29 31 27 23 20
52 50 50 48 48 49 46 39 34 40 41 38 35 32 32 33 38 32 32 31 31 30 29 31 32 33 37 38 36 39 37 33 30 28 28 31 31 31 31 31 27 27 25 24
51 50 49 49 48 48 45 40 35 35 33 33 34 35 33 30 31 34 33 31 31 28 28 30 31 34 36 38 38 37 35 31 27 27 30 32 31 30 29 29 30 26 27 26
50 50 49 49 48 48 42 34 33 36 33 32 32 34 32 30 33 35 30 31 31 30 30 31 30 32 33 33 35 35 34 30 29 25 28 28 27 28 29 29 30 29 29 28
50 49 49 48 47 46 39 35 35 33 34 31 30 30 32 33 35 36 36 34 33 33 34 33 32 33 31 34 34 34 33 29 27 26 25 24 22 25 27 29 29 28 27 28
49 49 48 46 49 46 39 35 34 32 26 29 30 31 34 35 35 33 35 34 34 35 35 34 34 31 31 31 31 33 32 31 30 23 23 16 22 23 25 24 27 27 25 30
49 48 47 45 48 47 39 38 36 30 26 28 27 29 34 35 35 35 34 33 33 36 35 32 29 29 29 29 30 29 30 31 28 24 22 21 26 27 27 27 30 31 30 32
49 48 46 45 46 47 39 38 39 36 28 25 27 28 34 33 34 34 35 35 36 39 37 31 25 24 24 26 28 30 29 28 26 23 20 17 26 27 29 29 28 29 28 28
48 47 45 44 46 44 40 38 39 36 28 29 28 26 26 26 31 32 33 33 35 38 34 30 24 25 26 24 24 26 27 27 24 24 22 24 28 30 30 23 25 27 26 26
47 46 44 44 44 43 41 38 39 37 30 30 30 30 27 26 26 28 28 32 33 36 33 32 30 28 25 25 27 26 26 25 24 25 23 17 28 31 27 26 27 28 28 28
47 46 44 43 43 42 41 36 36 36 33 31 31 31 31 32 31 30 32 32 33 35 33 32 30 26 27 26 23 28 25 28 27 26 27 28 26 29 27 27 27 29 30 30
47 46 45 43 43 41 40 38 35 35 31 30 30 28 30 33 34 33 30 32 33 32 34 34 32 28 31 26 27 27 29 30 29 29 29 29 27 29 28 30 30 31 31 31
46 45 44 42 41 42 40 38 39 38 34 28 27 30 30 32 34 33 33 33 32 32 35 33 32 29 30 28 28 28 28 28 24 24 24 24 27 28 30 31 31 31 31 31
46 45 44 43 42 41 40 39 39 38 37 28 28 31 31 32 33 33 31 30 29 30 31 30 28 30 29 26 25 25 27 24 22 23 27 27 27 31 31 31 31 31 32 32
46 45 44 43 42 41 40 35 38 38 40 33 27 31 30 31 31 31 30 31 30 31 29 28 28 27 28 24 21 23 24 24 26 25 29 30 31 31 31 31 31 32 32 31
46 44 43 42 41 40 37 36 37 36 38 32 28 27 31 32 31 31 30 31 31 31 29 27 25 26 28 26 20 21 23 24 28 29 30 29 30 29 30 30 31 32 32 32
44 42 42 42 41 40 36 38 39 39 36 36 26 24 27 32 28 29 31 28 30 30 28 27 25 26 25 23 23 22 24 23 25 25 27 27 27 27 28 29 30 29 29 30
43 43 41 39 37 35 35 37 38 39 37 28 29 23 20 30 29 31 30 29 26 28 27 26 26 24 21 24 22 21 23 23 24 25 26 27 25 25 26 26 27 27 27 28
42 38 36 34 35 38 39 38 35 33 33 33 24 29 23 30 29 28 28 28 27 25 27 27 25 25 27 24 25 25 25 26 26 23 23 26 25 27 26 26 26 27 28 29
37 34 32 37 40 37 32 28 28 28 26 30 27 27 24 30 27 26 29 26 27 24 27 24 25 24 25 24 24 23 22 22 22 24 25 26 26 26 27 27 27 28 29 28
37 36 37 36 33 31 22 21 25 25 24 27 26 26 28 29 31 27 28 25 26 23 27 24 21 30 28 27 26 24 24 23 23 22 23 25 25 25 25 26 27 28 30 29
37 34 28 28 23 20 13 12 21 20 27 27 26 24 27 28 28 26 25 23 24 29 24 21 25 28 22 23 25 24 25 24 23 24 25 26 26 27 26 25 26 29 29 29
33 24 9 18 17 22 28 28 25 28 28 29 28 26 26 26 26 25 16 24 26 20 13 17 27 26 26 24 24 24 24 25 25 23 23 25 26 26 26 26 26 28 29 30
25 27 11 21 25 26 27 27 27 28 30 28 27 25 25 25 21 24 21 20 10 16 16 23 24 23 24 25 25 24 23 23 22 23 22 22 23 25 25 25 26 27 29 29
28 25 21 24 25 24 26 26 26 29 28 29 29 22 18 19 20 16 12 12 10 18 22 24 23 22 23 23 22 22 21 22 22 22 23 22 21 22 23 24 25 27 27 27
26 24 27 28 27 27 28 25 25 28 28 24 25 13 15 22 16 15 18 14 19 23 24 24 23 22 22 21 20 21 22 22 22 21 23 22 22 20 20 21 24 25 27 28

GFSNW_sfc_dewp_072.txt.gz
Dewpoint
45 45 48 51 52 50 49 43 36 46 45 37 38 33 34 36 35 35 35 35 34 30 32 32 30 31 34 38 35 32 35 30 28 29 35 35 35 32 28 20 20 23 20 17
45 47 48 51 50 51 46 40 41 47 44 32 33 36 34 36 34 33 33 34 33 36 34 30 32 33 38 37 36 33 32 27 18 22 27 31 33 32 31 30 28 22 18 18
46 46 48 52 51 51 47 39 35 41 43 38 34 34 34 34 37 32 32 31 31 30 31 34 32 32 37 38 36 39 37 30 23 21 23 28 29 32 32 28 23 25 25 21
45 47 49 52 51 51 48 38 33 35 32 34 34 34 34 33 31 34 32 30 31 30 31 32 32 35 36 37 38 35 34 26 24 28 29 31 30 30 31 27 27 23 24 23
47 48 49 51 50 51 43 38 34 34 32 33 34 34 33 32 35 32 30 30 33 32 31 31 30 34 35 33 34 33 33 24 26 23 27 26 27 28 30 31 30 29 29 28
46 47 51 50 50 50 41 38 34 33 33 31 32 31 32 34 35 35 34 34 33 32 32 32 33 34 34 34 34 33 31 26 22 20 24 22 21 23 27 29 30 30 28 30
47 50 51 50 50 47 37 34 34 31 30 31 31 33 35 35 34 34 33 34 32 34 35 34 32 31 31 31 31 34 30 28 25 18 21 12 21 24 27 29 30 30 32 32
51 51 50 49 50 47 38 36 33 30 28 31 34 34 34 35 34 34 33 32 34 36 34 30 28 28 28 29 30 30 32 30 25 20 18 20 24 26 26 28 28 28 28 26
51 50 48 49 50 49 38 37 37 32 28 25 28 33 32 31 30 32 33 34 36 38 35 30 23 23 25 25 26 30 29 30 25 23 18 17 23 26 29 28 25 26 26 26
51 49 48 49 49 47 38 37 37 31 27 29 29 31 31 33 31 30 32 33 35 36 32 28 23 22 26 24 24 25 26 27 23 23 19 22 28 29 29 19 20 28 28 28
50 49 48 47 47 43 38 36 37 32 29 29 31 31 27 27 31 30 30 31 33 33 30 28 27 25 24 24 25 25 25 23 23 24 23 20 27 30 25 26 29 29 29 30
49 48 47 46 47 43 39 33 35 34 31 30 31 31 32 32 31 31 31 30 32 33 30 29 28 26 26 24 22 26 24 26 25 25 25 26 28 28 30 29 29 30 29 30
48 47 46 46 45 41 39 35 34 33 29 28 28 28 30 32 33 33 31 31 33 32 32 31 30 27 29 24 25 23 26 29 28 27 27 28 30 30 30 31 30 31 31 31
46 46 46 46 43 42 38 36 37 33 30 26 28 31 31 32 33 32 33 33 33 33 32 29 28 28 29 27 27 27 28 28 26 24 26 28 29 30 30 30 31 31 31 31
46 46 45 45 43 42 38 38 37 36 30 27 28 30 30 31 31 31 32 31 30 30 28 26 26 28 27 26 25 24 27 26 25 24 26 25 27 30 31 29 29 31 31 31
47 45 43 44 43 39 33 30 35 37 35 28 25 31 30 31 31 31 31 31 30 29 27 26 26 27 26 22 21 23 24 25 26 27 27 29 29 31 29 28 29 30 30 30
46 44 44 44 41 38 34 30 34 37 34 29 25 26 30 32 31 30 30 30 30 28 27 26 25 25 25 24 20 22 24 29 29 28 28 27 28 25 26 26 28 29 29 29
46 45 43 41 40 37 31 34 39 38 33 29 21 26 25 30 27 27 30 27 28 28 27 26 24 25 24 20 23 24 25 24 23 24 25 25 26 25 25 26 26 26 25 26
44 43 42 37 35 29 30 38 40 37 30 24 20 18 18 28 28 28 28 28 25 28 26 25 25 23 19 22 23 22 23 23 23 25 25 25 24 24 24 24 24 24 25 25
44 38 34 30 33 40 39 34 27 28 28 26 18 22 22 27 27 27 24 27 24 14 26 26 23 24 24 24 24 24 24 24 23 19 18 22 21 22 22 23 24 24 25 25
35 32 32 36 40 33 29 23 18 23 19 24 21 21 24 29 23 26 27 25 27 22 25 22 20 25 24 23 21 20 20 21 21 22 22 22 22 22 22 23 24 25 24 23
35 35 37 34 29 26 19 19 21 19 17 24 23 25 27 27 28 24 26 21 25 16 27 23 20 23 24 22 20 20 22 21 22 22 22 23 24 24 24 23 22 22 23 23
36 30 27 25 20 6 5 2 11 21 24 23 23 21 25 26 26 25 25 15 16 27 23 19 20 25 24 24 23 22 22 22 23 23 23 24 23 24 24 23 23 24 23 23
28 19 11 17 15 14 17 20 19 23 24 25 24 22 23 25 21 23 12 23 23 12 7 12 18 25 22 22 22 22 20 22 22 20 20 21 22 22 22 23 23 22 21 21
24 20 14 13 23 26 22 18 24 24 27 24 23 22 23 19 19 22 21 18 7 13 12 17 20 23 21 20 20 22 21 18 17 17 17 16 18 20 21 22 22 21 21 21
24 17 16 24 23 21 21 22 24 25 26 24 23 18 14 16 19 15 10 9 8 13 16 21 22 20 19 19 21 21 19 19 19 19 19 20 18 19 20 21 21 21 20 21
19 17 25 25 18 18 21 25 25 27 23 18 17 7 10 20 14 14 15 13 15 18 20 20 22 18 18 19 19 19 18 17 18 18 19 19 19 16 15 16 19 19 20 21

GFSNW_sfc_dewp_075.txt.gz
Dewpoint
44 45 45 46 47 50 49 44 36 45 45 37 34 28 33 35 35 35 34 35 31 29 31 30 29 29 33 37 35 32 33 29 28 30 34 35 34 30 26 20 19 21 19 17
45 45 46 45 47 50 47 41 40 47 44 30 30 34 32 35 33 33 33 34 35 34 32 29 31 32 37 37 35 31 31 27 17 21 25 29 31 32 30 28 25 20 17 18
46 46 45 46 48 50 47 41 34 41 43 37 30 32 33 34 37 33 32 31 30 33 31 33 31 31 37 38 35 39 36 28 22 19 22 27 28 31 30 27 20 23 22 21
46 44 46 46 48 50 48 40 35 36 33 34 33 34 34 33 32 34 32 30 30 29 31 31 31 33 35 36 37 34 31 25 24 27 28 30 29 29 30 26 26 22 24 22
45 47 47 47 49 50 46 38 35 34 31 33 33 34 34 32 34 32 30 29 32 31 30 29 30 33 32 31 34 32 31 24 25 23 25 25 27 28 30 31 29 29 27 28
46 47 48 48 51 50 43 41 38 33 33 30 33 33 33 33 34 34 34 33 32 31 32 32 32 34 34 33 32 32 29 25 21 20 23 22 20 22 27 29 31 30 28 30
49 50 49 52 50 47 43 38 35 32 30 30 33 33 35 35 34 33 32 33 32 34 35 33 31 31 31 32 32 33 29 27 23 17 20 13 21 24 26 29 29 31 32 31
51 50 52 51 48 44 42 37 33 31 28 30 34 35 35 34 34 33 32 32 34 35 32 29 28 28 27 29 30 31 31 29 24 18 17 20 23 25 28 27 27 28 29 26
51 50 51 51 49 43 39 37 37 31 30 27 28 32 34 33 32 31 33 35 37 37 33 29 23 22 23 24 26 29 29 29 25 23 18 17 22 27 29 29 23 26 26 26
50 50 50 49 50 43 40 37 36 31 28 28 29 30 32 33 31 30 31 32 34 35 30 27 23 22 26 23 23 24 27 27 27 23 19 22 25 29 28 20 20 27 27 27
50 49 49 50 48 42 40 35 35 31 29 29 31 31 27 30 32 30 31 31 32 32 29 27 27 24 24 22 23 23 25 22 22 24 24 19 27 29 23 25 28 29 29 29
49 48 47 47 46 42 39 32 35 34 31 29 31 31 32 32 31 31 30 29 31 32 30 29 28 27 25 23 21 25 23 25 24 25 24 27 29 28 29 28 29 29 28 30
48 47 45 45 47 42 39 34 34 32 29 28 29 28 30 32 33 33 31 31 33 32 31 30 29 26 28 23 24 21 25 28 27 26 26 27 28 29 30 30 29 30 30 31
47 45 45 46 44 41 38 35 36 32 29 26 28 31 30 32 32 32 33 33 33 33 31 28 28 27 28 26 26 26 27 27 26 24 25 26 29 28 29 30 30 30 31 31
46 45 46 44 43 41 39 37 37 35 29 27 28 30 30 31 32 32 32 31 31 30 28 26 26 28 27 25 25 24 26 26 25 25 26 26 26 29 30 27 27 29 29 29
46 45 46 44 43 40 33 30 35 36 34 29 24 30 30 32 31 30 30 31 30 28 28 26 26 27 26 23 22 23 24 26 26 25 27 28 28 30 28 26 26 28 28 28
45 43 45 43 41 38 32 31 34 37 34 28 25 24 30 32 30 30 30 30 29 28 27 25 24 25 25 23 20 21 24 27 27 26 27 26 26 24 26 24 26 27 26 27
44 45 44 41 40 37 31 36 40 36 30 28 22 25 25 29 27 26 30 27 27 28 26 25 24 24 23 20 22 23 26 24 23 24 24 22 24 24 24 24 25 24 23 24
45 43 42 36 34 28 29 38 38 36 30 23 21 20 19 29 28 28 28 28 24 27 25 25 24 23 18 20 23 23 25 23 22 25 23 23 21 22 21 22 22 21 22 23
45 38 34 28 32 40 38 32 27 28 28 27 22 25 22 25 25 24 24 27 24 14 25 25 23 23 25 24 24 24 24 23 23 18 16 20 19 21 21 21 22 23 23 23
34 31 30 34 39 32 27 23 20 23 19 26 23 22 24 28 21 23 26 23 25 14 20 20 17 20 24 23 22 21 20 20 20 21 21 22 21 21 21 22 23 24 24 22
35 35 36 32 27 23 14 13 20 21 17 24 24 25 26 27 27 24 24 21 24 14 26 18 14 21 24 23 20 19 20 20 21 21 22 22 23 23 22 22 21 21 22 22
34 30 27 26 20 4 1 2 11 16 24 25 23 22 24 25 26 23 19 14 15 26 22 16 19 23 24 22 22 21 22 22 21 21 22 22 21 22 22 21 22 22 22 22
29 21 16 19 12 12 13 18 21 25 25 24 23 23 23 25 21 21 12 23 21 15 8 12 17 24 24 22 22 21 18 20 21 20 19 20 21 20 21 21 21 21 21 21
26 22 13 12 22 25 24 20 24 23 26 24 22 21 22 20 20 22 21 19 8 14 13 17 20 21 22 21 20 19 20 18 17 16 15 14 15 18 19 20 21 21 21 21
22 17 16 23 22 24 20 15 19 23 24 24 23 18 16 17 19 15 11 10 9 13 16 21 21 20 20 20 19 19 20 19 18 18 17 18 17 18 18 18 19 19 20 20
18 20 25 25 23 22 23 24 24 25 21 17 18 9 11 19 13 13 13 11 14 17 19 20 22 19 16 17 18 19 19 18 17 16 18 18 18 12 14 15 19 19 21 21